www.pogodaiklimat.ru

Погода и климат >> Архив погоды >> Индия >> Pendra Road


ПОГОДА в Pendra Road

  • Прогноз погоды в Pendra Road
  • Монитор погоды в Pendra Road
  • Климат города

АРХИВ ПОГОДЫ в Pendra Road

Время (UTC), дата Ветер
(напр.,м/с)
 
Видим.   Явления Облачность Т
(С)
Тd
(С)
f
(%)
Тe
(С)
Тes
(С)
Комфортность P
(гПа)
Po
(гПа)
Тmin
(С)
Tmax
(С)
R
(мм)
R24
(мм)
S
(см)
21 10.07 штиль 0 4000 м 6/4 600 м
[Sc Ac trans]
+25.6 +24.5 94 +36 +36 очень
душно
997.4 929.6
00 11.07 штиль 0 4000 м 9/5 540 м
[Sc As trans]
+25.4 +24.8 96 +36 +36 очень
душно
997.4 929.6
03 11.07 штиль 0 4000 м 8/1 750 м
[Sc Ac trans Ci fib]
+27.6 +24.5 83 +39 +46 очень
душно
998.1 930.8 +23.4
06 11.07 штиль 0 4000 м 8/3 600 м
[Sc Ac trans Ci fib]
+30.6 +25.1 73 +44 +58 опасность
перегрева
996.2 930.5
09 11.07 З 2 4000 м 8/6 600 м
[Cu Sc Ci fib]
+30.8 +25.6 74 +45 +51 опасность
перегрева
994.6 928.1
12 11.07 З 1 4000 м {дождь} 10/5 540 м
[Sc As trans]
+27.2 +25.0 88 +39 +40 очень
душно
994.8 927.6 +33.0 7
15 11.07 штиль 0 4000 м 10/5 600 м
[Sc As trans]
+26.6 +24.9 90 +38 +38 очень
душно
997.7 930.1 7
18 11.07 штиль 0 4000 м 10/5 600 м
[Sc As op]
+26.0 +25.2 95 +37 +37 очень
душно
997.5 929.7 7
21 11.07 штиль 0 4000 м 10/5 600 м
[Sc As op]
+25.8 +25.0 95 +37 +37 очень
душно
997.1 929.3 7
00 12.07 штиль 0 4000 м 10/5 600 м
[Sc As op]
+25.4 +24.6 95 +36 +36 очень
душно
996.3 928.6 7
03 12.07 штиль 0 4000 м 10/6 450 м
[Sc As op]
+26.6 +24.9 90 +38 +39 очень
душно
997.4 929.8 +23.2 7
06 12.07 штиль 0 4000 м 9/4 540 м
[Sc As op]
+29.6 +25.5 79 +44 +50 опасность
перегрева
996.5 929.6
09 12.07 штиль 0 4000 м 9/5 540 м
[Sc As op]
+29.6 +25.8 80 +44 +48 опасность
перегрева
994.3 927.6
12 12.07 СВ 1 4000 м гроза, ливневой дождь 10/6 540 м
[Cb cap As op]
+27.0 +24.8 88 +39 +39 очень
душно
994.8 927.4 +32.0 2
15 12.07 штиль 0 4000 м гроза, ливневой дождь 10/8 600 м
[Cb calv As op]
+25.4 +24.8 96 +36 +36 очень
душно
996.9 929.1 17
18 12.07 штиль 0 4000 м {гроза, дождь} 10/8 600 м
[Cb calv As op]
+25.0 +24.4 96 +35 +35 очень
душно
997.6 929.6 21
21 12.07 штиль 0 4000 м 10/5 600 м
[Sc As op]
+24.8 +24.2 96 +34 +34 очень
душно
995.9 928.9 21
00 13.07 штиль 0 4000 м 10/5 600 м
[Sc As op]
+24.6 +24.3 98 +34 +34 очень
душно
996.3 928.4 21
03 13.07 штиль 0 4000 м 10/6 540 м
[Sc As op]
+25.8 +24.4 92 +36 +37 очень
душно
997.6 929.8 +22.6 21
06 13.07 штиль 0 4000 м 9/4 540 м
[Sc As op]
+28.2 +25.2 84 +41 +47 опасность
перегрева
996.9 929.8
09 13.07 штиль 0 4000 м слабый дождь 10/5 600 м
[Sc As op]
+28.8 +25.5 82 +42 +44 опасность
перегрева
995.4 928.4 0.0
12 13.07 штиль 0 4000 м {дождь} 10/5 600 м
[Sc As trans]
+27.8 +25.3 86 +40 +41 очень
душно
994.3 927.1 +30.7 0.1
15 13.07 штиль 0 4000 м гроза, ливневой дождь 10/6 540 м
[Cb cap As op]
+26.8 +25.1 90 +39 +39 очень
душно
997.3 929.7 3
18 13.07 штиль 0 4000 м {гроза} 10/6 540 м
[Sc As op]
+25.4 +24.6 95 +36 +36 очень
душно
998.1 930.3 21
21 13.07 штиль 0 4000 м {гроза, дождь} 10/6 540 м
[Sc As op]
+25.2 +24.3 95 +35 +35 очень
душно
996.6 928.9 27
00 14.07 штиль 0 4000 м {гроза, дождь} 10/6 540 м
[Sc As op]
+25.0 +24.4 96 +35 +35 очень
душно
996.3 928.4 34
03 14.07 штиль 0 4000 м слабый дождь 10/8 450 м
[Frnb As op]
+25.6 +24.8 95 +36 +37 очень
душно
997.3 929.5 +22.3 35
06 14.07 штиль 0 4000 м гроза, ливневой дождь 10/8 450 м
[Frnb As op]
+26.2 +25.1 94 +38 +39 очень
душно
996.9 929.3 1
09 14.07 штиль 0 4000 м {гроза, дождь} 8/4 600 м
[Cu Sc Ac trans]
+26.4 +25.3 94 +38 +46 очень
душно
995.4 927.5 8
12 14.07 штиль 0 4000 м гроза, ливневой дождь 10/8 450 м
[Frnb As op]
+27.8 +25.9 89 +41 +42 опасность
перегрева
994.6 927.4 +30.1 8
15 14.07 штиль 0 4000 м {гроза, дождь} 5/4 540 м
[Sc As op]
+25.4 +24.3 94 +35 +35 очень
душно
996.2 928.5 10
18 14.07 штиль 0 4000 м {гроза, дождь} 10/6 540 м
[Sc As op]
+25.4 +24.6 95 +36 +36 очень
душно
996.9 929.1 10
21 14.07 штиль 0 4000 м 10/6 540 м
[Sc As op]
+25.2 +24.1 94 +35 +35 очень
душно
995.8 928.1 10
00 15.07 штиль 0 4000 м 10/6 540 м
[Sc As op]
+24.6 +24.0 96 +34 +34 очень
душно
996.0 928.1 10
03 15.07 штиль 0 4000 м 10/3 600 м
[Sc Ac trans Ci fib]
+26.0 +24.6 92 +37 +41 очень
душно
996.4 928.7 +22.7 10
06 15.07 штиль 0 4000 м 5/5 600 м
[Cu Sc]
+30.4 +25.5 75 +45 +59 опасность
перегрева
994.3 927.8
09 15.07 штиль 0 4000 м 8/6 600 м
[Cu Sc Ci fib]
+30.6 +26.2 77 +46 +54 опасность
перегрева
992.9 926.5
12 15.07 СЗ 1 4000 м 8/6 600 м
[Cu Sc Ci fib]
+31.2 +26.0 74 +47 +47 опасность
перегрева
991.2 925.1 +32.6
15 15.07 штиль 0 4000 м зарница {гроза, дождь} 9/6 540 м
[Cb cap As op]
+26.0 +24.9 94 +37 +37 очень
душно
995.5 927.8 9
18 15.07 штиль 0 4000 м {гроза, дождь} 10/6 540 м
[Sc As op]
+25.8 +24.6 93 +36 +36 очень
душно
996.4 928.7 9
21 15.07 штиль 0 4000 м 3/0
[Ci fib]
+25.4 +24.0 92 +35 +35 очень
душно
995.3 927.6 9
00 16.07 штиль 0 4000 м 5/3 600 м
[Sc Ac trans]
+25.0 +23.6 92 +34 +34 очень
душно
996.1 928.2 9
03 16.07 штиль 0 4000 м слабый дождь 10/6 450 м
[Frnb As op]
+25.2 +23.5 90 +34 +35 очень
душно
995.6 927.9 +23.4 10
06 16.07 штиль 0 4000 м слабый дождь 10/6 450 м
[Frnb As op]
+26.4 +25.6 95 +39 +41 очень
душно
994.8 927.4 23
09 16.07 штиль 0 4000 м {дождь} 5/5 600 м
[Cu Sc]
+29.0 +24.8 78 +41 +52 опасность
перегрева
993.5 926.5 24
12 16.07 штиль 0 4000 м гроза, ливневой дождь 10/8 450 м
[Cb calv As op]
+26.0 +25.2 95 +37 +37 очень
душно
993.6 926.3 +29.1 27
15 16.07 штиль 0 4000 м {гроза, дождь} 3/3 600 м
[Sc]
+25.4 +24.8 96 +36 +36 очень
душно
995.7 928.0 32
18 16.07 штиль 0 4000 м {гроза, дождь} 5/5 600 м
[Sc]
+25.4 +24.8 96 +36 +36 очень
душно
996.1 928.4 32
21 16.07 штиль 0 4000 м 5/3 600 м
[Sc As trans]
+24.6 +23.7 95 +33 +33 очень
душно
995.4 927.5 32
00 17.07 штиль 0 4000 м слабый дождь 10/5 600 м
[Sc As op]
+25.0 +24.7 98 +35 +35 очень
душно
995.2 927.3 34
03 17.07 штиль 0 4000 м {дождь} 10/5 600 м
[Sc As op]
+25.6 +25.0 96 +36 +38 очень
душно
995.8 928.1 +22.8 40
06 17.07 штиль 0 4000 м слабый дождь 10/5 600 м
[Sc As trans]
+26.0 +25.2 95 +37 +43 очень
душно
995.9 928.2 1
09 17.07 штиль 0 4000 м {дождь} 9/5 540 м
[Sc As trans]
+26.6 +24.9 90 +38 +43 очень
душно
994.4 927.0 28
12 17.07 штиль 0 4000 м {дождь} 10/6 540 м
[Cb calv As op]
+26.0 +24.6 92 +37 +37 очень
душно
993.9 926.4 +26.8 28
15 17.07 штиль 0 4000 м зарница {гроза, дождь} 10/6 540 м
[Cb cap As op]
+25.2 +24.6 96 +35 +35 очень
душно
995.6 927.9 32
18 17.07 0 слабый дождь {гроза} н/о +24.1 996.1 928.4 32

 

Местоположение метеостанции Pendra Road (Chhattisgarh, Индия): широта 22.77 долгота 81.90 высота над уровнем моря 625 м.

В архиве по умолчанию представлена погода в Pendra Road за последнюю неделю. Архивные данные за месяц целиком и за предыдущие месяцы, начиная с января 2011 года, Вы можете получить, выбрав интересующий диапазон дат из раскрывающегося списка и нажав кнопку "Ввод!".


*Определитесь, кто Вы:
робот инопланетянин человек

Внимание! Время в таблицах - всемирное. Для получения местного времени необходимо прибавить поправку, которая в Pendra Road равна 5.5 ч.

Смотрите также архив погоды в соседних городах и на ближайших метеорологических станциях:

Погода в Raipur Airport (Chhattisgarh, Индия) (65 км)
Погода в Bilaspur (Chhattisgarh, Индия) (80 км)
Погода в Umaria (Madhya Pradesh, Индия) (134 км)
Погода в Ambikapur (Chhattisgarh, Индия) (145 км)
Погода в Malanjkhand (Madhya Pradesh, Индия) (150 км)
Погода в Mandla (Madhya Pradesh, Индия) (158 км)
Погода в Raipur (Chhattisgarh, Индия) (173 км)
Погода в Sidhi (Madhya Pradesh, Индия) (184 км)
Погода в Durg (Chhattisgarh, Индия) (188 км)
Погода в Rewa (Madhya Pradesh, Индия) (205 км)

Пояснения к столбцам:

Ветер - указаны скорость ветра в м/с - средняя за 10 мин, порывы в срок и между сроками (в фигурных скобках) и направление, откуда дует ветер: С - северный, СВ - северо-восточный, В - восточный, ЮВ - юго-восточный, Ю - южный, ЮЗ - юго-западный, З - западный, СЗ - северо-западный.
Видимость - горизонтальная дальность видимости в метрах или километрах. При видимости от 1 до 10 км при отсутствии осадков обычно наблюдается дымка, при ухудшении видимости до 1 км и менее - туман. В сухую погоду видимость может ухудшаться дымом, пылью или мглою.
Явления - указаны атмосферные явления, наблюдавшиеся в срок или в последний час перед сроком; фигурными скобками обозначены явления, наблюдавшиеся между сроками (за 1-3 часа до срока); квадратными скобками обозначены град или гололедные отложения с указанием их диаметра в мм.
Облачность - указаны через наклонную черту общая и нижняя облачность в баллах и высота нижней границы облаков в метрах; квадратными скобками обозначены формы облаков: Ci - перистые, Cs - перисто-слоистые, Cc - перисто-кучевые, Ac - высококучевые, As - высокослоистые, Sc - слоисто-кучевые, Ns - слоисто-дождевые, Cu - кучевые, Cb - кучево-дождевые. Подробнее классификацию облаков см. в Атласе облаков (PDF).
T - Температура воздуха - температура, измеренная на высоте 2 м над землей.
Td - Температура точки росы - температура, при понижении до которой содержащийся в воздухе водяной пар достигнет насыщения.
f - Относительная влажность воздуха - влажноcть воздуха, измеренная на высоте 2 м над землей.
Te - Эффективная температура - температура, которую ощущает одетый по сезону человек в тени. Характеристика душности погоды. При расчете учитывается влияние влажности воздуха и скорости ветра на теплоощущения человека.
Tes - Эффективная температура на солнце - температура, которую ощущает человек, с поправкой на солнечный нагрев. Характеристика знойности погоды. Зависит от высоты солнца над горизонтом, облачности и скорости ветра. Ночью, в пасмурную погоду, а также при ветре 12 м/с и более поправка равна нулю.
P - Атмосферное давление - приведенное к уровню моря атмосферное давление.
Po - Атмосферное давление - измеренное на уровне метеостанции атмосферное давление.
Tmin - Минимальная температура - минимум температуры воздуха на высоте 2 м над землей.
Tmax - Максимальная температура - максимум температуры воздуха на высоте 2 м над землей.
R - Количество осадков - Количество выпавших осадков за период времени, мм. При наведении курсора мыши на число - период времени, за который выпало указанное количество осадков.
R24 - Количество осадков - Количество выпавших осадков за 24 часа, мм.
S - Снежный покров - Высота снежного покрова, см. При наведении курсора мыши на число - состояние снежного покрова и степень покрытия местности в баллах.